| time (UTC) | temp C | wind direction | speed KPH | gust KPH | rain 1hr cm | rain 24hr cm | rain mn cm | humidity % | barometer mb |
| 20260504151044 | 6 | 344 | 3.2 | 11.3 | 0.00 | 0.00 | 0.00 | 73 | 1000.7 |
| 20260504150543 | 6 | 300 | 1.6 | 12.9 | 0.00 | 0.00 | 0.00 | 73 | 1000.6 |
| 20260504150512 | 5 | 294 | 3.2 | 12.9 | 0.00 | 0.00 | 0.00 | 73 | 1000.5 |
| 20260504141040 | 6 | 0 | 3.2 | 12.9 | 0.00 | 0.00 | 0.00 | 71 | 1000.0 |
| 20260504140540 | 6 | 0 | 3.2 | 17.7 | 0.00 | 0.00 | 0.00 | 73 | 999.9 |
| 20260504130540 | 5 | 315 | 4.8 | 17.7 | 0.00 | 0.00 | 0.00 | 79 | 999.1 |
| 20260504110542 | 8 | 0 | 1.6 | 11.3 | 0.00 | 0.00 | 0.00 | 72 | 996.6 |
| 20260504100545 | 8 | 0 | 0.0 | 9.7 | 0.00 | 0.00 | 0.00 | 72 | 995.9 |
| 20260504090104 | 8 | 331 | 3.2 | 17.7 | 0.00 | 0.00 | 0.00 | 70 | 996.4 |
| 20260504081554 | 10 | 288 | 6.4 | 40.2 | 0.00 | 0.00 | 0.00 | 66 | 996.2 |
| 20260504081042 | 10 | 346 | 11.3 | 40.2 | 0.00 | 0.00 | 0.00 | 66 | 995.9 |
| 20260504080542 | 10 | 331 | 12.9 | 38.6 | 0.00 | 0.00 | 0.00 | 65 | 995.7 |
| 20260504050539 | 14 | 0 | 0.0 | 11.3 | 0.00 | 0.00 | 0.00 | 47 | 995.6 |
| 20260504045546 | 13 | 0 | 0.0 | 8.0 | 0.00 | 0.00 | 0.00 | 46 | 995.8 |
| 20260504045039 | 13 | 0 | 0.0 | 6.4 | 0.00 | 0.00 | 0.00 | 47 | 995.9 |
| 20260504044555 | 13 | 0 | 0.0 | 4.8 | 0.00 | 0.00 | 0.00 | 47 | 996.1 |
| 20260504044042 | 13 | 0 | 0.0 | 11.3 | 0.00 | 0.00 | 0.00 | 47 | 996.2 |
| 20260504043539 | 13 | 0 | 0.0 | 11.3 | 0.00 | 0.00 | 0.00 | 47 | 996.2 |
| 20260504043053 | 13 | 0 | 0.0 | 11.3 | 0.00 | 0.00 | 0.00 | 47 | 996.3 |
| 20260504042544 | 13 | 0 | 0.0 | 1.6 | 0.00 | 0.00 | 0.00 | 47 | 996.6 |
| 20260504042042 | 13 | 0 | 0.0 | 6.4 | 0.00 | 0.00 | 0.00 | 48 | 996.8 |
| 20260504041552 | 13 | 0 | 0.0 | 6.4 | 0.00 | 0.00 | 0.00 | 48 | 996.8 |
| 20260504041042 | 13 | 0 | 0.0 | 1.6 | 0.00 | 0.00 | 0.00 | 49 | 997.0 |
| 20260504040542 | 13 | 0 | 0.0 | 1.6 | 0.00 | 0.00 | 0.00 | 49 | 997.1 |
| 20260504040057 | 13 | 0 | 0.0 | 1.6 | 0.00 | 0.00 | 0.00 | 49 | 997.2 |
| 20260504035545 | 13 | 0 | 0.0 | 0.0 | 0.00 | 0.00 | 0.00 | 51 | 997.4 |
| 20260504035042 | 12 | 0 | 0.0 | 0.0 | 0.00 | 0.00 | 0.00 | 51 | 997.4 |
| 20260504034555 | 12 | 0 | 0.0 | 0.0 | 0.00 | 0.00 | 0.00 | 51 | 997.6 |
| 20260504034042 | 12 | 0 | 0.0 | 0.0 | 0.00 | 0.00 | 0.00 | 51 | 997.7 |
| 20260504033543 | 12 | 0 | 0.0 | 0.0 | 0.00 | 0.00 | 0.00 | 52 | 997.8 |
| 20260504033053 | 12 | 0 | 0.0 | 0.0 | 0.00 | 0.00 | 0.00 | 53 | 998.0 |
| 20260504032542 | 12 | 0 | 0.0 | 0.0 | 0.00 | 0.00 | 0.00 | 52 | 998.1 |
| 20260504032039 | 12 | 0 | 0.0 | 0.0 | 0.00 | 0.00 | 0.00 | 53 | 998.3 |
| 20260504031550 | 12 | 0 | 0.0 | 0.0 | 0.00 | 0.00 | 0.00 | 53 | 998.4 |
| 20260504031041 | 12 | 0 | 0.0 | 0.0 | 0.00 | 0.00 | 0.00 | 52 | 998.4 |
| 20260504030541 | 12 | 0 | 0.0 | 0.0 | 0.00 | 0.00 | 0.00 | 52 | 998.6 |
| 20260504030048 | 12 | 0 | 0.0 | 0.0 | 0.00 | 0.00 | 0.00 | 53 | 998.8 |
| 20260504025543 | 12 | 0 | 0.0 | 0.0 | 0.00 | 0.00 | 0.00 | 52 | 998.9 |
| 20260504025042 | 12 | 0 | 0.0 | 0.0 | 0.00 | 0.00 | 0.00 | 52 | 998.9 |
| 20260504024558 | 12 | 0 | 0.0 | 0.0 | 0.00 | 0.00 | 0.00 | 53 | 999.1 |
| 20260504024043 | 12 | 0 | 0.0 | 1.6 | 0.00 | 0.00 | 0.00 | 52 | 999.2 |
| 20260504023541 | 12 | 0 | 0.0 | 1.6 | 0.00 | 0.00 | 0.00 | 51 | 999.2 |
| 20260504023048 | 12 | 0 | 0.0 | 0.0 | 0.00 | 0.00 | 0.00 | 51 | 999.2 |
| 20260504022542 | 12 | 0 | 0.0 | 0.0 | 0.00 | 0.00 | 0.00 | 51 | 999.4 |
| 20260504022043 | 12 | 0 | 0.0 | 0.0 | 0.00 | 0.00 | 0.00 | 51 | 999.4 |
| 20260504021550 | 12 | 0 | 0.0 | 0.0 | 0.00 | 0.00 | 0.00 | 50 | 999.5 |
| 20260504021042 | 12 | 0 | 0.0 | 0.0 | 0.00 | 0.00 | 0.00 | 50 | 999.7 |
| 20260504020543 | 13 | 0 | 0.0 | 0.0 | 0.00 | 0.00 | 0.00 | 50 | 999.7 |
| 20260504020046 | 13 | 0 | 0.0 | 0.0 | 0.00 | 0.00 | 0.00 | 49 | 999.8 |
| 20260504015544 | 13 | 0 | 0.0 | 0.0 | 0.00 | 0.00 | 0.00 | 48 | 999.9 |
| 20260504015043 | 13 | 0 | 0.0 | 0.0 | 0.00 | 0.00 | 0.00 | 48 | 1000.0 |
| 20260504014554 | 13 | 0 | 0.0 | 0.0 | 0.00 | 0.00 | 0.00 | 47 | 1000.1 |
| 20260504014039 | 13 | 0 | 0.0 | 1.6 | 0.00 | 0.00 | 0.00 | 46 | 1000.2 |
| 20260504013542 | 14 | 0 | 0.0 | 1.6 | 0.00 | 0.00 | 0.00 | 46 | 1000.3 |
| 20260504013103 | 15 | 0 | 0.0 | 1.6 | 0.00 | 0.00 | 0.00 | 46 | 1000.4 |
| 20260504012543 | 15 | 0 | 0.0 | 0.0 | 0.00 | 0.00 | 0.00 | 45 | 1000.5 |
| 20260504012045 | 15 | 0 | 0.0 | 0.0 | 0.00 | 0.00 | 0.00 | 44 | 1000.7 |
| 20260504011549 | 15 | 0 | 0.0 | 0.0 | 0.00 | 0.00 | 0.00 | 43 | 1000.7 |
| 20260504011043 | 16 | 0 | 0.0 | 1.6 | 0.00 | 0.00 | 0.00 | 43 | 1000.9 |
| 20260504010543 | 16 | 0 | 0.0 | 1.6 | 0.00 | 0.00 | 0.00 | 42 | 1001.1 |
| 20260504010058 | 16 | 0 | 0.0 | 0.0 | 0.00 | 0.00 | 0.00 | 42 | 1001.1 |
| 20260504005542 | 17 | 0 | 0.0 | 0.0 | 0.00 | 0.00 | 0.00 | 41 | 1001.3 |
| 20260504005043 | 17 | 0 | 0.0 | 1.6 | 0.00 | 0.00 | 0.00 | 40 | 1001.4 |
| 20260504004600 | 17 | 0 | 0.0 | 1.6 | 0.00 | 0.00 | 0.00 | 39 | 1001.5 |
| 20260504004042 | 17 | 0 | 0.0 | 4.8 | 0.00 | 0.00 | 0.00 | 38 | 1001.6 |
| 20260504003543 | 18 | 0 | 0.0 | 4.8 | 0.00 | 0.00 | 0.00 | 37 | 1001.7 |
| 20260504003044 | 18 | 0 | 0.0 | 11.3 | 0.00 | 0.00 | 0.00 | 38 | 1001.8 |
| 20260504002544 | 18 | 0 | 0.0 | 11.3 | 0.00 | 0.00 | 0.00 | 37 | 1001.9 |
| 20260504002042 | 18 | 0 | 0.0 | 1.6 | 0.00 | 0.00 | 0.00 | 37 | 1002.0 |
| 20260504001549 | 18 | 0 | 0.0 | 1.6 | 0.00 | 0.00 | 0.00 | 36 | 1002.1 |
| 20260504001042 | 18 | 0 | 0.0 | 8.0 | 0.00 | 0.00 | 0.00 | 36 | 1002.2 |
| 20260504000544 | 19 | 0 | 0.0 | 9.7 | 0.00 | 0.00 | 0.00 | 37 | 1002.2 |
| 20260504000048 | 19 | 0 | 0.0 | 12.9 | 0.00 | 0.00 | 0.00 | 35 | 1002.2 |
| 20260503235542 | 19 | 0 | 0.0 | 12.9 | 0.00 | 0.00 | 0.00 | 35 | 1002.3 |
| 20260503235042 | 20 | 0 | 1.6 | 17.7 | 0.00 | 0.00 | 0.00 | 34 | 1002.4 |
| 20260503234549 | 20 | 0 | 0.0 | 17.7 | 0.00 | 0.00 | 0.00 | 35 | 1002.5 |
| 20260503234043 | 20 | 0 | 1.6 | 16.1 | 0.00 | 0.00 | 0.00 | 35 | 1002.6 |
| 20260503233543 | 20 | 0 | 0.0 | 17.7 | 0.00 | 0.00 | 0.00 | 34 | 1002.7 |
| 20260503233049 | 20 | 0 | 1.6 | 19.3 | 0.00 | 0.00 | 0.00 | 34 | 1002.8 |
| 20260503232543 | 20 | 282 | 4.8 | 19.3 | 0.00 | 0.00 | 0.00 | 34 | 1002.8 |
| 20260503232042 | 19 | 0 | 4.8 | 20.9 | 0.00 | 0.00 | 0.00 | 35 | 1003.0 |
| 20260503231549 | 20 | 248 | 3.2 | 25.7 | 0.00 | 0.00 | 0.00 | 33 | 1003.1 |
| 20260503231044 | 20 | 219 | 6.4 | 25.7 | 0.00 | 0.00 | 0.00 | 33 | 1003.2 |
| 20260503230545 | 20 | 252 | 0.0 | 17.7 | 0.00 | 0.00 | 0.00 | 34 | 1003.2 |
| 20260503230055 | 20 | 0 | 0.0 | 17.7 | 0.00 | 0.00 | 0.00 | 35 | 1003.2 |
| 20260503225542 | 20 | 250 | 3.2 | 17.7 | 0.00 | 0.00 | 0.00 | 33 | 1003.2 |
| 20260503225042 | 20 | 263 | 4.8 | 17.7 | 0.00 | 0.00 | 0.00 | 34 | 1003.3 |
| 20260503224549 | 20 | 282 | 1.6 | 17.7 | 0.00 | 0.00 | 0.00 | 35 | 1003.4 |
| 20260503224046 | 20 | 248 | 0.0 | 14.5 | 0.00 | 0.00 | 0.00 | 33 | 1003.6 |
| 20260503223543 | 20 | 0 | 0.0 | 14.5 | 0.00 | 0.00 | 0.00 | 34 | 1003.7 |
| 20260503223052 | 20 | 278 | 0.0 | 16.1 | 0.00 | 0.00 | 0.00 | 35 | 1003.7 |
| 20260503222542 | 19 | 0 | 1.6 | 17.7 | 0.00 | 0.00 | 0.00 | 34 | 1003.9 |
| 20260503222041 | 19 | 259 | 4.8 | 17.7 | 0.00 | 0.00 | 0.00 | 35 | 1004.0 |
| 20260503221550 | 19 | 0 | 4.8 | 17.7 | 0.00 | 0.00 | 0.00 | 34 | 1004.0 |
| 20260503221041 | 19 | 0 | 3.2 | 17.7 | 0.00 | 0.00 | 0.00 | 35 | 1004.2 |
| 20260503220541 | 18 | 258 | 6.4 | 17.7 | 0.00 | 0.00 | 0.00 | 34 | 1004.3 |
| 20260503220049 | 19 | 0 | 0.0 | 17.7 | 0.00 | 0.00 | 0.00 | 35 | 1004.2 |
| 20260503215540 | 19 | 262 | 3.2 | 17.7 | 0.00 | 0.00 | 0.00 | 33 | 1004.4 |
| 20260503215041 | 19 | 0 | 0.0 | 16.1 | 0.00 | 0.00 | 0.00 | 33 | 1004.5 |
| 20260503214550 | 18 | 252 | 1.6 | 17.7 | 0.00 | 0.00 | 0.00 | 35 | 1004.6 |
| 20260503214041 | 18 | 0 | 4.8 | 17.7 | 0.00 | 0.00 | 0.00 | 32 | 1004.5 |
| 20260503213542 | 19 | 223 | 1.6 | 16.1 | 0.00 | 0.00 | 0.00 | 33 | 1004.8 |
| 20260503213048 | 19 | 0 | 0.0 | 16.1 | 0.00 | 0.00 | 0.00 | 34 | 1004.8 |
| 20260503212542 | 18 | 0 | 1.6 | 16.1 | 0.00 | 0.00 | 0.00 | 33 | 1004.9 |
| 20260503212039 | 18 | 248 | 3.2 | 22.5 | 0.00 | 0.00 | 0.00 | 34 | 1004.9 |
| 20260503211549 | 18 | 259 | 4.8 | 22.5 | 0.00 | 0.00 | 0.00 | 33 | 1005.0 |
| 20260503211042 | 18 | 262 | 0.0 | 27.4 | 0.00 | 0.00 | 0.00 | 35 | 1005.0 |
| 20260503210541 | 18 | 0 | 6.4 | 27.4 | 0.00 | 0.00 | 0.00 | 32 | 1005.2 |
| 20260503210047 | 19 | 275 | 1.6 | 19.3 | 0.00 | 0.00 | 0.00 | 35 | 1005.3 |
| 20260503205541 | 18 | 255 | 6.4 | 20.9 | 0.00 | 0.00 | 0.00 | 33 | 1005.3 |
| 20260503205042 | 18 | 261 | 4.8 | 20.9 | 0.00 | 0.00 | 0.00 | 33 | 1005.5 |
| 20260503204547 | 18 | 250 | 4.8 | 17.7 | 0.00 | 0.00 | 0.00 | 34 | 1005.5 |
| 20260503204041 | 18 | 0 | 4.8 | 17.7 | 0.00 | 0.00 | 0.00 | 35 | 1005.6 |
| 20260503203539 | 18 | 264 | 4.8 | 17.7 | 0.00 | 0.00 | 0.00 | 35 | 1005.7 |
| 20260503203052 | 18 | 0 | 3.2 | 20.9 | 0.00 | 0.00 | 0.00 | 37 | 1005.8 |
| 20260503202539 | 18 | 294 | 1.6 | 20.9 | 0.00 | 0.00 | 0.00 | 38 | 1006.0 |
| 20260503202043 | 18 | 248 | 4.8 | 19.3 | 0.00 | 0.00 | 0.00 | 37 | 1006.1 |
| 20260503201547 | 18 | 259 | 3.2 | 20.9 | 0.00 | 0.00 | 0.00 | 39 | 1006.3 |
| 20260503201042 | 17 | 262 | 0.0 | 20.9 | 0.00 | 0.00 | 0.00 | 40 | 1006.4 |
| 20260503200541 | 17 | 265 | 4.8 | 17.7 | 0.00 | 0.00 | 0.00 | 37 | 1006.5 |
| 20260503200050 | 17 | 0 | 3.2 | 22.5 | 0.00 | 0.00 | 0.00 | 37 | 1006.5 |
| 20260503195542 | 17 | 0 | 1.6 | 22.5 | 0.00 | 0.00 | 0.00 | 40 | 1006.6 |
| 20260503195041 | 17 | 272 | 3.2 | 19.3 | 0.00 | 0.00 | 0.00 | 38 | 1006.6 |
| 20260503194548 | 17 | 0 | 1.6 | 19.3 | 0.00 | 0.00 | 0.00 | 37 | 1006.7 |
| 20260503194043 | 17 | 272 | 0.0 | 17.7 | 0.00 | 0.00 | 0.00 | 40 | 1006.9 |
| 20260503193542 | 17 | 295 | 1.6 | 14.5 | 0.00 | 0.00 | 0.00 | 41 | 1007.0 |
| 20260503193050 | 17 | 257 | 0.0 | 14.5 | 0.00 | 0.00 | 0.00 | 40 | 1007.1 |
| 20260503192541 | 17 | 271 | 1.6 | 14.5 | 0.00 | 0.00 | 0.00 | 41 | 1007.0 |
| 20260503192041 | 16 | 0 | 1.6 | 14.5 | 0.00 | 0.00 | 0.00 | 39 | 1007.1 |
| 20260503191553 | 16 | 0 | 1.6 | 16.1 | 0.00 | 0.00 | 0.00 | 38 | 1007.3 |
| 20260503191043 | 16 | 0 | 1.6 | 16.1 | 0.00 | 0.00 | 0.00 | 38 | 1007.4 |
| 20260503190546 | 17 | 258 | 1.6 | 25.7 | 0.00 | 0.00 | 0.00 | 38 | 1007.6 |
| 20260503190048 | 16 | 286 | 4.8 | 25.7 | 0.00 | 0.00 | 0.00 | 39 | 1007.6 |
| 20260503185543 | 16 | 288 | 6.4 | 25.7 | 0.00 | 0.00 | 0.00 | 42 | 1007.7 |
| 20260503185046 | 16 | 258 | 3.2 | 19.3 | 0.00 | 0.00 | 0.00 | 38 | 1007.6 |
| 20260503184559 | 16 | 260 | 1.6 | 17.7 | 0.00 | 0.00 | 0.00 | 41 | 1007.9 |
| 20260503184044 | 16 | 252 | 1.6 | 17.7 | 0.00 | 0.00 | 0.00 | 41 | 1007.9 |
| 20260503183542 | 16 | 0 | 3.2 | 17.7 | 0.00 | 0.00 | 0.00 | 38 | 1008.1 |
| 20260503183049 | 16 | 304 | 1.6 | 17.7 | 0.00 | 0.00 | 0.00 | 41 | 1008.0 |
| 20260503182544 | 16 | 0 | 3.2 | 19.3 | 0.00 | 0.00 | 0.00 | 37 | 1008.1 |
| 20260503182040 | 16 | 0 | 1.6 | 19.3 | 0.00 | 0.00 | 0.00 | 38 | 1008.2 |
| 20260503181548 | 16 | 259 | 4.8 | 19.3 | 0.00 | 0.00 | 0.00 | 38 | 1008.3 |
| 20260503181044 | 16 | 0 | 0.0 | 20.9 | 0.00 | 0.00 | 0.00 | 40 | 1008.5 |
| 20260503180546 | 15 | 266 | 6.4 | 22.5 | 0.00 | 0.00 | 0.00 | 38 | 1008.5 |
| 20260503180101 | 16 | 244 | 8.0 | 22.5 | 0.00 | 0.00 | 0.00 | 39 | 1008.5 |
| 20260503175543 | 16 | 243 | 0.0 | 19.3 | 0.00 | 0.00 | 0.00 | 38 | 1008.6 |
| 20260503175044 | 16 | 0 | 1.6 | 19.3 | 0.00 | 0.00 | 0.00 | 40 | 1008.6 |
| 20260503174549 | 16 | 311 | 3.2 | 14.5 | 0.00 | 0.00 | 0.00 | 38 | 1008.6 |
| 20260503174045 | 16 | 0 | 0.0 | 25.7 | 0.00 | 0.00 | 0.00 | 40 | 1008.7 |
| 20260503173543 | 15 | 292 | 6.4 | 25.7 | 0.00 | 0.00 | 0.00 | 40 | 1008.7 |
| 20260503173056 | 15 | 248 | 3.2 | 17.7 | 0.00 | 0.00 | 0.00 | 40 | 1008.8 |
| 20260503172544 | 15 | 0 | 1.6 | 17.7 | 0.00 | 0.00 | 0.00 | 40 | 1008.9 |
| 20260503172043 | 15 | 0 | 3.2 | 19.3 | 0.00 | 0.00 | 0.00 | 42 | 1008.9 |
| 20260503171550 | 15 | 295 | 1.6 | 19.3 | 0.00 | 0.00 | 0.00 | 42 | 1009.1 |
| 20260503171043 | 15 | 0 | 0.0 | 22.5 | 0.00 | 0.00 | 0.00 | 40 | 1009.1 |
| 20260503170544 | 15 | 330 | 3.2 | 25.7 | 0.00 | 0.00 | 0.00 | 38 | 1009.3 |